STARLINK-33625, 63327

Orbit data source: Space-Track

STARLINK-33625, 63327 is a payload satellite owned by SpaceX/Seattle (US) in LEO that was launched on Tue, 18 Mar 2025 UTC via an FALCON 9 launch vehicle from the Air Force Eastern Test Range (AFETR). Payload-class satellites include a variety of spacecraft equipped with specific instruments for various scientific and technological missions. These include communications satellites like Starlink; space stations such as the ISS; scientific satellites like the Hubble; Earth observation satellites from companies like Planet Labs, Umbra, and HawkEye 360; GPS; miniature CubeSats for education and research; and military/defense satellites.

Loading next visibility...
Identifier
63327, 2025-057W
Orbit
LEO
Last TLE update
2 days ago
Origin
Manufacturer
SpaceX/Seattle
Mission
Operational spacecraft
Bus & Motor
STARLINK V2MO, Unknown motor
Mass
575 kg wet, ~530 kg dry
Launch date (UTC)
2025-03-18 (1 month ago)
Launch vehicle
FALCON 9
Launch site
Air Force Eastern Test Range (AFETR)
Object type
Payload
Rocket body
Debris
Shape & HBR
Unknown
Radar Cross Section
Large (>1 m²)

Expand to show TLE details & history

TLE from 2 days ago
0 STARLINK-33625
1 63327U 25057W   25118.95462181 -.00000421  00000-0 -28084-5 0  9999
2 63327  43.0059   8.2404 0001338 262.7114  97.3591 15.40676528  7645
Epoch: 2025-04-28T22:54Z
Definitive object data (Epoch: 2025-04-28T22:54:39.324Z)
Latitude
0.00002°
Longitude
167.41534°
Altitude
444.003 km
Speed
7.647 km/s
True Right ascension
00h 32m 57s
True Declination
0° 00' 00"
Sunlit
Object was in daylight at TLE epoch
Visualization TLE readout
Latitude
-1.80446°
Longitude
-19.44257°
Altitude
444.142 km
Speed
7.647 km/s
Apparent Right ascension
10h 03m 22s
Apparent Declination
-24° 39' 02"
Sunlit
Object is in full shadow
Visualization observer readout
Local Sidereal Time
19:03:18
Azimuth
278.177° WNW
Elevation
-49.5°
Doppler factor
1
Orbital elements
Apogee altitude
446.98 km
Perigee altitude
445.154 km
Semi-major axis
6,824.204 km
Eccentricity
0.0001338
Inclination
43.0059°
RAAN
8.2404°
Arg. of periapsis
262.7114°
True anomaly
97.37431°
Mean anomaly
97.3591°
Eccentric anomaly
97.3667°
Mean motion
3.85004 °/min
BSTAR
-0.0000028084
Orbital period
93.51 mins
Loading maneuver chart data...
Loading SW <> Apogee altitude chart data...
Loading historical data...
Loading historical data...
Loading historical data...
Loading historical data...
Loading historical data...
Loading historical data...
Loading historical data...

STARLINK-33625 Visibility forecast

Observer location: undefined°, undefined°

Span
Click to sort rows by Start time (UTC) header in descending order
Start Az.
Max El. time (UTC)
Max El. Az.
Max El.
End time (UTC)
End Az.
4 mins2025-04-30 18:40:07.964Z181.659° SSW2025-04-30 18:42:07.964Z140.765° SSE17.649°2025-04-30 18:44:07.964Z102.977° ESE
5 mins2025-04-30 20:18:07.964Z244.992° WSW2025-04-30 20:20:07.964Z86.53° E42.271°2025-04-30 20:23:07.964Z72.735° E
5 mins2025-04-30 21:56:07.964Z292.475° WNW2025-04-30 21:58:07.964Z11.928° NNE36.889°2025-04-30 22:01:07.964Z73.523° E
5 mins2025-04-30 23:34:07.964Z292.762° NW2025-04-30 23:36:07.964Z359.408° N43.793°2025-04-30 23:39:07.964Z100.168° ESE
5 mins2025-05-01 01:12:07.964Z260.81° W2025-05-01 01:14:07.964Z210.333° SW25.645°2025-05-01 01:17:07.964Z150.416° SSE
|